This is the latest recevied weather packets stored in our database for station/object IK2ILW-4. If no packets are shown the sender has not sent any weather packets the latest 10 day(s).
| Time | Temp. | Humidity | Pressure | Rain* | Wind** | Luminosity | Snow |
|---|---|---|---|---|---|---|---|
| 1787827061 | 21.11° C | 76% | 1023.5 hPa | 0 mm | - | 522 W/m² | - |
| 1787826768 | 20.56° C | 77% | 1023.5 hPa | 0 mm | - | 613 W/m² | - |
| 1787826454 | 21.11° C | 75% | 1023.5 hPa | 0 mm | - | 552 W/m² | - |
| 1787826167 | 21.11° C | 77% | 1023.5 hPa | 0 mm | - | 529 W/m² | - |
| 1787825874 | 21.11° C | 76% | 1023.5 hPa | 0 mm | - | 448 W/m² | - |
| 1787825571 | 21.11° C | 76% | 1023.4 hPa | 0 mm | - | 492 W/m² | - |
| 1787825268 | 21.11° C | 77% | 1023.4 hPa | 0 mm | - | 487 W/m² | - |
| 1787824970 | 21.11° C | 75% | 1023.4 hPa | 0 mm | - | 594 W/m² | - |
| 1787824654 | 21.11° C | 74% | 1023.6 hPa | 0 mm | - | 387 W/m² | - |
| 1787824368 | 21.11° C | 76% | 1023.6 hPa | 0 mm | - | 439 W/m² | - |
| 1787824073 | 20.56° C | 76% | 1023.6 hPa | 0 mm | - | 615 W/m² | - |
| 1787823768 | 20.56° C | 76% | 1023.7 hPa | 0 mm | - | 506 W/m² | - |
| 1787823467 | 20.56° C | 76% | 1023.7 hPa | 0 mm | - | 522 W/m² | - |
| 1787823169 | 20.56° C | 73% | 1023.7 hPa | 0 mm | - | 202 W/m² | - |
| 1787822862 | 21.11° C | 71% | 1023.7 hPa | 0 mm | - | 387 W/m² | - |
| 1787822559 | 21.11° C | 70% | 1023.7 hPa | 0 mm | - | 420 W/m² | - |
| 1787822255 | 21.11° C | 69% | 1023.7 hPa | 0 mm | - | 475 W/m² | - |
| 1787821972 | 21.11° C | 71% | 1023.6 hPa | 0 mm | - | 563 W/m² | - |
| 1787821669 | 21.11° C | 70% | 1023.6 hPa | 0 mm | - | 608 W/m² | - |
| 1787821355 | 21.67° C | 69% | 1023.6 hPa | 0 mm | - | 598 W/m² | - |
| 1787821072 | 22.22° C | 69% | 1023.7 hPa | 0 mm | - | 575 W/m² | - |
| 1787820763 | 22.22° C | 70% | 1023.7 hPa | 0 mm | - | 555 W/m² | - |
| 1787820473 | 21.67° C | 70% | 1023.7 hPa | 0 mm | - | 548 W/m² | - |
| 1787820173 | 21.11° C | 72% | 1023.7 hPa | 0 mm | - | 501 W/m² | - |
| 1787819869 | 20.56° C | 73% | 1023.7 hPa | 0 mm | - | 489 W/m² | - |
* Rain since midnight (hover to see other rain measurements)
** Current wind speed in m/s (hover to see current wind gust speed)